Kimball, NE

2:34 AM MDT on October 22, 2017 (GMT -0600)
Kimball Municipal-Arraj

Weather History for KIBM - May, 2013

Change the Weather History Date:

Friday, May 3, 2013

  Actual Average (KSNY) Record (KSNY)
Temperature  
Mean Temperature 42 °F -  
Max Temperature 57 °F 66 °F 91 °F (1949)
Min Temperature 27 °F 35 °F 19 °F (2013)
Degree Days  
Heating Degree Days 23    
Moisture  
Dew Point 25 °F    
Average Humidity 56    
Maximum Humidity 84    
Minimum Humidity 23    
Precipitation  
Precipitation 0.00 in - - ()
Sea Level Pressure  
Sea Level Pressure 30.21 in    
Wind  
Wind Speed 6 mph (WNW)    
Max Wind Speed 13 mph    
Max Gust Speed 16 mph    
Visibility 10 miles    
Events      
Averages and records for this station are not official NWS values.
T = Trace of Precipitation, MM = Missing Value Source: NWS Daily Summary

Daily Weather History Graph

Daily Weather History Graph

Search for Another Location

Airport or City:

Trip Planner

Search our weather history database for the weather conditions in past years. The results will help you decide how hot, cold, wet, or windy it might be!

Date:

Astronomy

May. 03, 2013 Rise Set
Actual Time 6:49 AM CDT 8:54 PM CDT
Civil Twilight 6:19 AM CDT 9:24 PM CDT
Nautical Twilight 5:42 AM CDT 10:01 PM CDT
Astronomical Twilight 5:02 AM CDT 10:42 PM CDT
Moon 3:18 AM CDT (5/3) 2:48 PM CDT (5/3)
Length of Visible Light 15h 05m
Length of Day
14h 04m
Last Quarter, 37% of the Moon is Illuminated
May 3
Last Quarter
May 9
New
May 17
First Quarter
May 24
Full
May 31
Last Quarter

Hourly Weather History & Observations

Time (CDT) Temp. Windchill Dew Point Humidity Pressure Visibility Wind Dir Wind Speed Gust Speed Precip Events Conditions
12:15 AM 31.3 °F 27.9 °F 24.4 °F 76% 30.39 in 10.0 mi SW 3.5 mph - N/A   Clear
12:35 AM 30.4 °F 25.6 °F 24.8 °F 80% 30.38 in 10.0 mi West 4.6 mph - N/A   Clear
12:55 AM 30.4 °F 23.6 °F 24.8 °F 80% 30.38 in 10.0 mi West 6.9 mph - N/A   Clear
1:15 AM 30.9 °F 23.5 °F 24.3 °F 76% 30.38 in 10.0 mi WSW 8.1 mph - N/A   Clear
1:35 AM 29.7 °F 22.0 °F 23.9 °F 79% 30.37 in 10.0 mi West 8.1 mph - N/A   Clear
1:55 AM 29.3 °F 21.5 °F 24.1 °F 81% 30.36 in 10.0 mi West 8.1 mph - N/A   Clear
2:15 AM 29.8 °F 22.2 °F 23.9 °F 79% 30.35 in 10.0 mi West 8.1 mph - N/A   Clear
2:35 AM 30.4 °F 22.9 °F 24.1 °F 77% 30.34 in 10.0 mi West 8.1 mph - N/A   Clear
2:55 AM 30.2 °F 21.9 °F 24.3 °F 79% 30.34 in 10.0 mi West 9.2 mph - N/A   Clear
3:15 AM 30.2 °F 21.9 °F 24.1 °F 78% 30.33 in 10.0 mi West 9.2 mph - N/A   Clear
3:35 AM 30.2 °F 22.6 °F 23.9 °F 77% 30.32 in 10.0 mi West 8.1 mph - N/A   Clear
3:55 AM 29.1 °F 23.0 °F 23.9 °F 81% 30.32 in 10.0 mi West 5.8 mph - N/A   Clear
4:15 AM 30.2 °F 21.9 °F 23.5 °F 76% 30.31 in 10.0 mi West 9.2 mph - N/A   Clear
4:35 AM 30.2 °F 21.9 °F 23.5 °F 76% 30.31 in 10.0 mi West 9.2 mph - N/A   Clear
4:55 AM 29.1 °F 23.0 °F 23.4 °F 79% 30.30 in 10.0 mi West 5.8 mph - N/A   Clear
5:15 AM 28.4 °F 19.7 °F 23.0 °F 80% 30.30 in 10.0 mi West 9.2 mph - N/A   Clear
5:35 AM 28.2 °F 19.5 °F 23.0 °F 81% 30.30 in 10.0 mi West 9.2 mph - N/A   Clear
5:55 AM 27.0 °F 21.6 °F 22.6 °F 84% 30.29 in 10.0 mi West 4.6 mph - N/A   Clear
6:15 AM 27.0 °F 19.5 °F 22.5 °F 83% 30.28 in 10.0 mi West 6.9 mph - N/A   Clear
6:35 AM 27.0 °F 18.7 °F 22.1 °F 82% 30.28 in 10.0 mi West 8.1 mph - N/A   Clear
6:55 AM 27.1 °F 19.7 °F 22.3 °F 82% 30.28 in 10.0 mi West 6.9 mph - N/A   Clear
7:15 AM 27.5 °F 20.2 °F 22.8 °F 83% 30.27 in 10.0 mi West 6.9 mph - N/A   Clear
7:35 AM 28.0 °F 21.7 °F 23.9 °F 84% 30.27 in 10.0 mi West 5.8 mph - N/A   Clear
7:55 AM 29.8 °F 23.0 °F 24.4 °F 80% 30.27 in 10.0 mi West 6.9 mph - N/A   Clear
8:15 AM 30.9 °F 24.3 °F 24.1 °F 76% 30.27 in 10.0 mi West 6.9 mph - N/A   Clear
8:35 AM 32.4 °F 26.0 °F 25.5 °F 76% 30.26 in 10.0 mi West 6.9 mph - N/A   Clear
8:55 AM 34.0 °F 27.2 °F 26.4 °F 74% 30.25 in 10.0 mi West 8.1 mph - N/A   Clear
9:15 AM 36.1 °F 29.9 °F 27.7 °F 71% 30.25 in 10.0 mi West 8.1 mph - N/A   Clear
9:35 AM 37.8 °F 32.5 °F 28.6 °F 69% 30.24 in 10.0 mi West 6.9 mph - N/A   Clear
9:55 AM 39.7 °F 35.6 °F 29.7 °F 67% 30.24 in 10.0 mi West 5.8 mph - N/A   Clear
10:15 AM 41.5 °F 37.8 °F 30.4 °F 65% 30.23 in 10.0 mi West 5.8 mph - N/A   Clear
10:35 AM 43.9 °F 40.5 °F 30.6 °F 59% 30.22 in 10.0 mi West 5.8 mph - N/A   Clear
10:55 AM 45.9 °F 43.6 °F 28.2 °F 50% 30.22 in 10.0 mi West 4.6 mph - N/A   Clear
11:15 AM 47.5 °F - 23.5 °F 39% 30.22 in 10.0 mi West 3.5 mph - N/A   Clear
11:35 AM 48.0 °F - 18.5 °F 31% 30.21 in 10.0 mi Calm Calm - N/A   Clear
11:55 AM 48.9 °F - 18.9 °F 30% 30.21 in 10.0 mi Calm Calm - N/A   Clear
12:15 PM 49.8 °F - 19.4 °F 30% 30.20 in 10.0 mi Calm Calm - N/A   Clear
12:35 PM 50.0 °F - 18.3 °F 29% 30.20 in 10.0 mi Calm Calm - N/A   Clear
12:55 PM 50.4 °F - 18.3 °F 28% 30.19 in 10.0 mi Calm Calm - N/A   Clear
1:15 PM 51.1 °F - 19.9 °F 29% 30.19 in 10.0 mi WNW 4.6 mph - N/A   Clear
1:35 PM 52.3 °F - 21.7 °F 30% 30.17 in 10.0 mi NW 5.8 mph - N/A   Clear
1:55 PM 52.9 °F - 22.3 °F 30% 30.17 in 10.0 mi WNW 4.6 mph - N/A   Clear
2:15 PM 54.0 °F - 21.2 °F 28% 30.16 in 10.0 mi WNW 4.6 mph - N/A   Clear
2:35 PM 54.5 °F - 21.9 °F 28% 30.16 in 10.0 mi Calm Calm - N/A   Clear
2:55 PM 55.9 °F - 22.3 °F 27% 30.15 in 10.0 mi North 6.9 mph - N/A   Clear
3:15 PM 56.3 °F - 22.1 °F 27% 30.15 in 10.0 mi WNW 9.2 mph - N/A   Clear
3:35 PM 56.8 °F - 22.3 °F 26% 30.14 in 10.0 mi North 8.1 mph - N/A   Clear
3:55 PM 57.2 °F - 22.8 °F 27% 30.13 in 10.0 mi NNE 8.1 mph - N/A   Clear
4:15 PM 56.8 °F - 20.1 °F 24% 30.12 in 10.0 mi NNW 3.5 mph - N/A   Clear
4:35 PM 56.7 °F - 18.5 °F 23% 30.12 in 10.0 mi NE 4.6 mph 16.1 mph N/A   Clear
4:55 PM 56.7 °F - 21.7 °F 26% 30.11 in 10.0 mi NNE 9.2 mph - N/A   Clear
5:15 PM 56.3 °F - 22.1 °F 27% 30.11 in 10.0 mi NNE 9.2 mph - N/A   Clear
5:35 PM 56.3 °F - 22.8 °F 27% 30.10 in 10.0 mi North 11.5 mph - N/A   Clear
5:55 PM 56.3 °F - 24.4 °F 29% 30.10 in 10.0 mi NNE 3.5 mph - N/A   Clear
6:15 PM 55.6 °F - 24.6 °F 30% 30.10 in 10.0 mi ENE 8.1 mph - N/A   Clear
6:35 PM 56.1 °F - 26.1 °F 31% 30.10 in 10.0 mi NE 12.7 mph - N/A   Clear
6:55 PM 55.4 °F - 25.2 °F 31% 30.10 in 10.0 mi NE 10.4 mph - N/A   Clear
7:15 PM 55.4 °F - 25.5 °F 32% 30.09 in 10.0 mi NE 10.4 mph - N/A   Clear
7:35 PM 54.5 °F - 26.2 °F 34% 30.09 in 10.0 mi NE 6.9 mph - N/A   Clear
7:55 PM 53.4 °F - 26.1 °F 35% 30.09 in 10.0 mi ENE 6.9 mph - N/A   Clear
8:15 PM 50.5 °F - 28.9 °F 43% 30.10 in 10.0 mi East 5.8 mph - N/A   Clear
8:35 PM 47.3 °F - 30.0 °F 51% 30.10 in 10.0 mi East 4.6 mph - N/A   Clear
8:55 PM 46.8 °F - 29.5 °F 51% 30.10 in 10.0 mi East 4.6 mph - N/A   Clear
9:15 PM 44.1 °F 40.8 °F 30.4 °F 59% 30.10 in 10.0 mi East 5.8 mph - N/A   Clear
9:35 PM 41.5 °F 39.6 °F 30.6 °F 65% 30.11 in 10.0 mi East 3.5 mph - N/A   Clear
9:55 PM 43.9 °F 42.3 °F 28.4 °F 55% 30.12 in 10.0 mi ESE 3.5 mph - N/A   Clear
10:15 PM 41.9 °F 37.5 °F 29.1 °F 61% 30.13 in 10.0 mi ESE 6.9 mph - N/A   Clear
10:35 PM 41.7 °F 37.3 °F 29.8 °F 63% 30.13 in 10.0 mi SE 6.9 mph - N/A   Clear
10:55 PM 40.5 °F 38.4 °F 30.0 °F 66% 30.14 in 10.0 mi SE 3.5 mph - N/A   Clear
11:15 PM 42.4 °F - 29.8 °F 61% 30.13 in 10.0 mi Calm Calm - N/A   Clear
11:35 PM 39.6 °F - 29.7 °F 68% 30.13 in 10.0 mi Calm Calm - N/A   Clear
11:55 PM 39.9 °F - 29.3 °F 66% 30.13 in 10.0 mi Calm Calm - N/A   Clear